Location: Devore Heights
(34.2372°N, 117.4156°W)
Time: 15:54:14
(UTC+00:00)

Tiros 1 despin weight - Pass Details

Date: 13 September 2024
Orbit: 572 x 614 km, 48.2° (Epoch: 12 October)

Event Time Altitude Azimuth Distance (km) Brightness Sun altitude
Exits shadow 11:37:09 50° 333° (NNW) 783 ? -23.8°
Drops below altitude 10° 11:41:28 10° 44° (NE) 1,979 ? -23.0°
Sets 11:43:51 0° 49° (NE) 2,887 ? -22.5°
